Startseite
Über Mich
AHP4
Galerie
Sehschlangen
Tourenbuch
Bookmarks
Elektronik
Bewertung
Geschichten
[Tagesmessung] [Jahreswerte] [Information]

Messwerte vom 26.12.2021

Die letzten Messwerte von 23:58:47 Uhr:
KategorieMesswert
Temperatur [°C]-5
Luftdruck [mBar]992
Sonneneinstrahlung0
Wind [km/h]2 aus Südost
Niederschlag [l/m²]0
rel.Luftfeucht.96.3%
CO2 [ppm]629

Diagramme
Messwerte vom 26.12.2021
Tagesaggregation
KategorieMinimumMaximumSchnittSumme
Temperatur [°C]-12-3-8.0438
Luftdruck [mBar]992998995.8208
Sonneneinstrahlung24063.3604
Wind [km/h]4
rF [%]91.396.696.26
Niederschlag [l/m²]0.2575
CO2 [ppm]401733532.2
Einordnung alsEistag
Frosttag
Kalter Tag

Messungen an benachbarten Tagen: Zur Jahresaggregation 2021
Tabelle aller Messwerte
UhrzeitTemperatur [°C]Luftdruck [mBar]SonneWind [km/h]RichtungRegen [l/m²]rF [%]CO2 [ppm]
00:01:51 -11 998 0 0 O 0 96.6 729
00:04:51 -11 998 0 0 O 0 96.6 733
00:07:45 -11 998 0 0 O 0 96.6 732
00:10:47 -11 998 0 0 O 0 96.6 731
00:13:46 -11 998 0 0 O 0 96.6 723
00:16:48 -11 998 0 0 O 0 96.6 718
00:19:45 -11 998 0 0 O 0 96.6 714
00:22:47 -12 998 0 0 O 0 96.6 712
00:25:48 -12 998 0 0 O 0 96.6 714
00:28:48 -12 998 0 0 O 0 96.6 717
00:31:48 -12 998 0 0 O 0 96.6 723
00:34:47 -12 998 0 0 O 0 96.6 718
00:37:46 -12 997 0 0 O 0 96.6 715
00:40:47 -12 998 0 0 O 0 96.6 712
00:43:47 -12 998 0 0 O 0 96.6 697
00:46:47 -12 998 0 0 O 0 96.6 703
00:49:46 -12 997 0 0 O 0 96.6 711
00:52:45 -11 998 0 0 O 0 96.6 711
00:55:46 -11 998 0 0 O 0 96.6 715
00:58:47 -11 997 0 0 O 0 96.6 717
01:01:48 -12 998 0 0 O 0 96.4 717
01:04:45 -12 998 0 0 O 0 96.4 715
01:07:46 -12 998 0 0 O 0 96.4 724
01:10:49 -11 998 0 0 O 0 96.6 722
01:13:46 -11 997 0 0 O 0 96.6 713
01:16:48 -11 998 0 0 O 0 96.6 706
01:19:46 -11 998 0 0 O 0 96.6 709
01:22:46 -11 998 0 0 O 0 96.6 708
01:25:49 -11 998 0 0 O 0 96.6 705
01:28:47 -11 998 0 0 O 0 96.6 704
01:31:48 -11 998 0 0 O 0 96.6 707
01:34:47 -11 997 0 0 NO 0 96.6 706
01:37:47 -11 998 0 0 NO 0 96.6 698
01:40:47 -11 997 0 0 NO 0 96.6 698
01:43:46 -11 998 0 0 N 0 96.6 697
01:46:49 -11 998 0 0 N 0 96.6 698
01:49:49 -11 998 0 0 N 0 96.6 695
01:52:47 -11 997 0 0 N 0 96.6 695
01:55:49 -11 998 0 0 N 0 96.6 697
01:58:47 -11 998 0 0 N 0 96.6 695
02:01:47 -11 998 0 0 O 0 96.6 697
02:04:50 -11 998 0 0 O 0 96.6 703
02:07:48 -11 998 0 0 O 0 96.6 698
02:10:47 -11 998 0 0 NO 0 96.6 690
02:13:46 -11 998 0 0 O 0 96.6 691
02:16:46 -11 997 0 0 O 0 96.6 690
02:19:45 -11 997 0 0 O 0 96.6 691
02:22:46 -11 998 0 0 O 0 96.6 691
02:25:48 -11 998 0 0 O 0 96.6 690
02:28:46 -11 998 0 0 O 0 96.6 682
02:31:49 -11 998 0 0 O 0 96.6 685
02:34:50 -11 998 0 0 O 0 96.6 679
02:37:46 -11 998 0 0 O 0 96.6 678
02:40:46 -11 998 0 0 O 0 96.6 677
02:43:47 -11 998 0 0 O 0 96.6 679
02:46:46 -11 998 0 0 O 0 96.6 682
02:49:47 -11 998 0 0 O 0 96.6 682
02:52:46 -11 998 0 0 O 0 96.6 682
02:55:46 -11 998 0 0 O 0 96.6 673
02:58:46 -11 998 0 0 O 0 96.6 682
03:01:47 -11 998 0 0 O 0 96.6 683
03:04:45 -11 998 0 0 O 0 96.6 681
03:07:48 -11 997 0 0 O 0 96.6 680
03:10:47 -11 997 0 0 O 0 96.6 679
03:13:47 -11 997 0 0 O 0 96.6 680
03:16:48 -11 997 0 0 O 0 96.6 684
03:19:47 -11 997 0 0 O 0 96.6 679
03:22:45 -11 997 0 0 O 0 96.6 679
03:25:49 -11 998 0 0 N 0 96.6 679
03:28:47 -11 998 0 0 O 0 96.6 679
03:31:48 -11 998 0 0 O 0 96.6 679
03:34:48 -11 998 0 0 O 0 96.6 679
03:37:48 -11 997 0 0 O 0 96.6 677
03:40:45 -11 998 0 0 O 0 96.6 667
03:43:48 -11 997 0 0 O 0 96.6 672
03:46:46 -11 998 0 0 O 0 96.6 668
03:49:46 -11 997 0 0 O 0 96.6 674
03:52:47 -11 997 0 0 N 0 96.6 669
03:55:51 -11 997 0 0 NO 0 96.6 671
03:58:46 -11 997 0 0 O 0 96.6 668
04:01:49 -11 998 0 0 O 0 96.6 659
04:04:50 -11 998 0 0 O 0 96.6 664
04:07:48 -11 997 0 0 O 0 96.6 668
04:10:48 -11 998 0 0 O 0 96.6 671
04:13:47 -11 998 0 0 O 0 96.6 666
04:16:46 -11 997 0 0 O 0 96.6 664
04:19:47 -11 997 0 0 O 0 96.6 664
04:22:46 -11 998 0 0 O 0 96.6 671
04:25:47 -11 998 0 0 NO 0 96.6 670
04:28:47 -11 997 0 0 O 0 96.6 674
04:31:46 -11 997 0 0 O 0 96.6 673
04:34:47 -11 996 0 0 O 0 96.6 673
04:37:47 -11 997 0 1 N 0 96.6 664
04:40:47 -11 997 0 0 O 0 96.6 664
04:43:52 -11 997 0 0 NO 0 96.6 662
04:46:49 -11 997 0 0 NO 0 96.6 665
04:49:48 -11 998 0 0 N 0 96.6 662
04:52:48 -11 997 0 0 NO 0 96.6 667
04:55:46 -11 997 0 0 O 0 96.6 668
04:58:48 -11 998 0 0 O 0 96.6 667
05:01:45 -11 998 0 0 O 0 96.6 668
05:04:45 -11 997 0 0 O 0 96.6 671
05:07:48 -11 997 0 0 NO 0 96.6 671
05:10:49 -11 998 0 0 O 0 96.6 668
05:13:49 -11 998 0 0 O 0 96.6 668
05:16:45 -11 998 0 0 O 0 96.6 664
05:19:48 -11 998 0 0 O 0 96.6 658
05:22:47 -11 997 0 0 O 0 96.6 654
05:25:47 -11 997 0 0 O 0 96.6 659
05:28:47 -11 997 0 0 O 0 96.6 659
05:31:46 -11 996 0 0 O 0 96.6 661
05:34:46 -11 996 0 0 O 0 96.6 655
05:37:46 -11 998 0 0 O 0 96.6 658
05:40:48 -11 997 0 0 O 0 96.6 659
05:43:45 -11 997 0 0 O 0 96.6 653
05:46:47 -11 997 0 0 O 0 96.6 658
05:49:48 -11 996 0 0 O 0 96.6 658
05:52:47 -11 996 0 0 O 0 96.6 665
05:55:48 -11 996 0 0 O 0 96.6 668
05:58:46 -11 996 0 0 O 0 96.6 661
06:01:48 -11 996 0 0 O 0 96.6 659
06:04:47 -11 997 0 0 O 0 96.6 662
06:07:47 -11 997 0 0 O 0 96.6 665
06:10:48 -11 996 0 0 NO 0 96.6 665
06:13:46 -11 997 0 0 O 0 96.6 665
06:16:46 -11 996 0 0 O 0 96.6 664
06:19:47 -11 997 0 0 O 0 96.6 666
06:22:44 -11 996 0 0 O 0 96.6 664
06:25:46 -11 996 0 0 O 0 96.6 658
06:28:47 -11 997 0 0 O 0 96.6 658
06:31:48 -11 997 0 0 O 0 96.6 653
06:34:45 -11 997 0 0 O 0 96.6 650
06:37:45 -11 996 0 0 O 0 96.6 646
06:40:46 -11 997 0 0 O 0 96.6 653
06:43:47 -12 996 0 0 O 0 96.6 658
06:46:44 -12 996 0 0 O 0 96.6 649
06:49:46 -12 997 0 0 O 0 96.6 647
06:52:44 -11 997 0 0 O 0 96.6 644
06:55:47 -11 997 0 0 O 0 96.6 648
06:58:47 -11 996 0 0 O 0 96.6 663
07:01:48 -11 996 0 0 O 0 96.6 648
07:04:46 -11 996 0 0 O 0 96.6 654
07:07:46 -11 996 0 0 O 0 96.6 650
07:10:48 -11 996 0 0 O 0 96.6 651
07:13:45 -11 996 0 0 O 0 96.6 645
07:16:46 -11 996 0 0 O 0 96.6 641
07:19:47 -11 997 0 0 O 0 96.6 648
07:22:48 -11 997 0 0 O 0 96.6 650
07:25:48 -11 997 0 0 O 0 96.6 646
07:28:46 -11 997 0 0 O 0 96.6 653
07:31:49 -11 996 0 0 O 0 96.6 659
07:34:48 -11 996 0 0 O 0 96.6 667
07:37:46 -11 997 0 0 O 0 96.6 674
07:40:47 -11 996 0 0 O 0 96.6 677
07:43:49 -11 996 0 0 O 0 96.6 683
07:46:48 -11 997 0 0 O 0 96.6 693
07:49:47 -11 997 0 0 O 0 96.6 707
07:52:46 -11 996 0 1 NO 0 96.6 715
07:55:48 -11 997 3 0 O 0 96.6 725
07:58:48 -11 997 5 0 NW 0 96.6 726
08:01:48 -11 996 8 1 NO 0 96.6 723
08:04:48 -11 997 7 0 O 0 96.6 623
08:07:48 -11 997 17 0 SO 0 96.6 404
08:10:48 -11 996 23 1 O 0 96.6 443
08:13:48 -11 997 32 0 O 0 96.6 469
08:16:48 -10 998 43 0 NO 0 96.6 490
08:19:47 -10 998 54 0 O 0 96.6 457
08:22:47 -10 996 66 0 O 0 96.6 475
08:25:49 -10 997 78 1 SO 0 96.6 463
08:28:46 -10 997 89 0 N 0 96.6 454
08:31:49 -10 997 99 0 O 0 96.6 445
08:34:52 -10 996 108 0 NW 0 96.6 439
08:37:46 -10 997 116 0 0 96.6 437
08:40:49 -10 997 123 0 O 0 96.6 433
08:43:51 -10 997 130 0 NO 0 96.6 422
08:46:48 -10 997 136 0 O 0 96.6 419
08:49:49 -10 998 141 0 O 0 96.6 415
08:52:48 -10 997 146 0 O 0 96.6 415
08:55:48 -10 997 150 0 O 0 96.6 421
08:58:46 -10 997 153 0 O 0 96.6 421
09:01:48 -10 997 157 0 O 0 96.6 418
09:04:49 -10 997 160 0 O 0 96.6 416
09:07:49 -10 997 163 0 S 0 96.6 418
09:10:47 -10 997 165 0 SO 0 96.6 418
09:13:46 -10 997 167 0 N 0 96.6 424
09:16:48 -10 996 169 0 NO 0 96.6 424
09:19:48 -10 998 171 0 NW 0 96.6 430
09:22:48 -10 997 172 1 S 0 96.6 427
09:25:49 -10 996 174 0 NO 0 96.6 421
09:28:50 -10 997 175 0 SO 0 96.6 424
09:31:49 -10 996 176 0 NW 0 96.6 427
09:34:47 -10 997 178 0 SO 0 96.6 427
09:37:47 -10 997 179 0 O 0 96.6 430
09:40:47 -10 996 180 0 SO 0 96.6 430
09:43:48 -10 997 181 0 SO 0 96.6 424
09:46:49 -10 997 182 0 O 0 96.6 422
09:49:47 -10 997 182 1 O 0 96.6 419
09:52:48 -10 997 183 1 SO 0 96.6 424
09:55:47 -10 996 184 0 SO 0 96.6 427
09:58:48 -10 996 185 0 NO 0 96.6 425
10:01:47 -10 996 185 1 O 0 96.6 428
10:04:47 -10 997 186 0 S 0 96.6 430
10:07:49 -9 997 186 0 O 0 96.6 424
10:10:46 -9 998 187 1 O 0 96.6 426
10:13:51 -9 996 188 0 NO 0 96.6 421
10:16:47 -9 996 188 0 SO 0 96.6 422
10:19:48 -9 997 189 0 SO 0 96.6 418
10:22:49 -9 997 189 0 NO 0 96.6 418
10:25:46 -9 997 190 0 N 0 96.6 419
10:28:50 -9 997 190 0 NO 0 96.6 422
10:31:48 -9 996 191 0 O 0 96.6 428
10:34:48 -9 997 191 1 O 0 96.6 432
10:37:50 -9 998 192 0 SO 0 96.6 419
10:40:48 -8 997 192 0 O 0 96.6 416
10:43:48 -8 997 193 1 O 0 96.6 413
10:46:52 -8 996 193 0 O 0 96.6 404
10:49:46 -8 997 194 1 SO 0 96.6 407
10:52:47 -8 997 195 0 S 0 96.6 410
10:55:48 -8 997 196 0 SO 0 96.6 416
10:58:49 -8 997 196 0 O 0 96.6 412
11:01:47 -8 997 197 0 N 0 96.6 416
11:04:48 -8 997 198 0 O 0 96.6 416
11:07:46 -8 997 199 1 O 0 96.6 421
11:10:47 -8 996 199 0 O 0 96.6 421
11:13:47 -8 997 200 0 O 0 96.6 430
11:16:47 -8 996 201 0 N 0 96.6 424
11:19:49 -8 996 201 0 O 0 96.6 428
11:22:47 -8 996 202 0 O 0 96.6 419
11:25:47 -8 997 202 1 SO 0 96.6 424
11:28:50 -7 997 202 0 NO 0 96.6 427
11:31:46 -7 996 203 0 S 0 96.6 434
11:34:47 -7 996 203 2 S 0 96.6 430
11:37:48 -7 996 203 0 O 0 96.6 431
11:40:49 -7 996 203 0 S 0 96.6 425
11:43:47 -7 996 203 0 S 0 96.6 427
11:46:46 -7 997 203 1 NO 0 96.6 424
11:49:49 -7 996 203 0 NO 0 96.6 419
11:52:48 -7 996 203 0 O 0 96.6 427
11:55:46 -7 996 203 1 O 0 96.6 424
11:58:46 -6 997 203 2 N 0 96.6 432
12:01:48 -6 996 203 0 S 0 96.6 427
12:04:48 -6 996 203 0 N 0 96.6 430
12:07:49 -6 996 204 1 NO 0 96.6 424
12:10:48 -6 996 204 1 NO 0 96.6 424
12:13:48 -6 996 205 0 NO 0 96.6 422
12:16:51 -6 996 205 1 O 0 96.6 422
12:19:48 -6 996 205 0 O 0 96.6 421
12:22:48 -5 996 206 1 N 0 96.6 425
12:25:47 -5 997 205 0 O 0 96.6 418
12:28:47 -6 996 206 1 NO 0 96.6 422
12:31:50 -6 995 206 0 O 0 96.6 419
12:34:48 -6 996 207 0 O 0 96.6 422
12:37:47 -6 996 207 0 N 0 96.6 416
12:40:49 -5 996 207 0 O 0 96.6 410
12:43:48 -5 995 208 2 NO 0 96.6 424
12:46:48 -5 996 213 0 NO 0 96.6 422
12:49:46 -4 997 214 1 N 0 96.6 416
12:52:46 -4 995 215 0 NO 0 96.6 413
12:55:51 -4 996 215 0 SO 0 96.6 410
12:58:47 -4 996 216 1 O 0 96.6 410
13:01:47 -4 995 216 2 N 0 96.6 410
13:04:47 -4 996 217 0 O 0 96.6 413
13:07:47 -4 995 218 1 NO 0 96.5 407
13:10:48 -4 995 218 2 SO 0 96.4 404
13:13:48 -4 997 219 0 N 0 96 408
13:16:48 -3 996 219 2 SO 0.2575 96.1 413
13:19:48 -3 996 219 0 SO 0 96.5 415
13:22:52 -3 996 219 2 SO 0 96.6 410
13:25:47 -3 996 219 1 NO 0 96.3 410
13:28:50 -3 996 219 0 NW 0 95.9 415
13:31:45 -3 996 218 1 N 0 96.4 422
13:34:50 -3 996 218 0 SO 0 95.2 418
13:37:47 -3 995 218 0 SO 0 95.2 427
13:40:46 -3 995 218 0 NO 0 96.3 424
13:43:49 -3 995 218 1 NO 0 96.6 415
13:46:47 -3 995 218 0 NO 0 96.3 410
13:49:53 -3 995 217 0 NW 0 94.8 419
13:52:48 -3 995 219 1 SO 0 93.8 412
13:55:48 -3 995 222 1 O 0 93.6 415
13:58:49 -3 995 225 0 NO 0 93.8 407
14:01:46 -3 995 227 0 O 0 93.1 411
14:04:47 -3 995 227 0 O 0 92.7 409
14:07:46 -3 995 227 1 O 0 91.8 410
14:10:46 -4 995 237 1 O 0 91.5 421
14:13:49 -4 995 239 1 NO 0 91.7 413
14:16:48 -4 995 240 0 SO 0 91.3 419
14:19:46 -4 995 240 1 NO 0 91.9 413
14:22:47 -4 995 213 1 O 0 92.2 418
14:25:47 -4 995 240 1 O 0 92.5 418
14:28:47 -4 995 240 2 NO 0 92.8 415
14:31:50 -5 995 239 0 NO 0 93.6 410
14:34:48 -5 995 235 1 O 0 93.6 404
14:37:46 -5 995 224 0 O 0 93.4 405
14:40:47 -5 995 202 2 NO 0 93.6 407
14:43:48 -5 995 199 3 NO 0 93.9 407
14:46:47 -5 995 198 0 NO 0 93.7 416
14:49:44 -5 995 197 0 N 0 93.7 424
14:52:46 -5 995 197 2 O 0 93.4 416
14:55:48 -5 995 196 1 SO 0 93.3 406
14:58:46 -5 995 195 0 0 93.1 407
15:01:46 -5 995 194 0 O 0 93.3 404
15:04:47 -5 995 193 0 SO 0 93.5 410
15:07:45 -5 995 192 1 O 0 93.8 410
15:10:46 -5 995 191 1 SO 0 93.6 404
15:13:50 -5 995 190 0 O 0 93.4 406
15:16:47 -5 995 188 1 NO 0 93.8 408
15:19:45 -5 995 187 1 O 0 94.1 415
15:22:46 -5 995 185 1 O 0 94.3 409
15:25:46 -5 995 183 2 W 0 94.4 413
15:28:46 -5 995 181 0 NO 0 94.4 412
15:31:46 -6 995 178 1 SW 0 94.4 418
15:34:48 -6 995 175 0 SO 0 94.7 415
15:37:47 -6 995 173 0 N 0 94.6 410
15:40:45 -6 995 170 1 O 0 94.7 409
15:43:48 -6 995 166 0 SO 0 94.9 413
15:46:47 -6 995 162 2 O 0 94.9 416
15:49:45 -6 995 157 3 O 0 95.1 413
15:52:45 -6 995 152 2 0 95.8 418
15:55:48 -6 995 147 2 O 0 95.8 414
15:58:47 -6 995 140 1 NW 0 95.8 413
16:01:46 -6 995 133 2 O 0 96 412
16:04:47 -6 995 124 0 O 0 96 415
16:07:46 -6 995 115 0 NO 0 96.1 419
16:10:47 -6 995 105 1 O 0 95.9 428
16:13:48 -6 995 93 2 O 0 96.3 424
16:16:47 -6 995 81 1 S 0 96.5 415
16:19:46 -6 995 68 2 O 0 96.6 412
16:22:47 -6 995 55 1 O 0 96.5 407
16:25:45 -6 995 43 3 S 0 96.5 410
16:28:49 -6 995 33 0 SO 0 96.6 415
16:31:50 -6 995 23 2 SO 0 96.6 416
16:34:45 -6 995 17 1 O 0 96.6 416
16:37:47 -7 995 11 0 W 0 96.6 413
16:40:47 -7 995 8 0 SO 0 96.6 415
16:43:46 -7 995 5 2 N 0 96.5 409
16:46:46 -7 995 3 0 O 0 96.5 407
16:49:46 -7 995 0 0 O 0 96.6 413
16:52:50 -7 995 0 1 NO 0 96.6 413
16:55:45 -7 995 0 0 NO 0 96.6 410
16:58:46 -7 995 0 1 O 0 96.6 413
17:01:45 -7 995 0 0 S 0 96.6 416
17:04:45 -7 995 0 1 O 0 96.6 405
17:07:47 -7 995 0 0 NO 0 96.6 410
17:10:45 -7 995 0 1 O 0 96.6 413
17:13:45 -7 995 0 2 N 0 96.6 419
17:16:46 -7 995 0 0 NW 0 96.6 416
17:19:46 -7 995 0 1 NO 0 96.6 416
17:22:46 -7 995 0 1 N 0 96.6 407
17:25:49 -7 995 0 2 SO 0 96.6 406
17:28:45 -7 995 0 1 O 0 96.6 407
17:31:45 -7 995 0 1 O 0 96.6 406
17:34:45 -7 995 0 1 O 0 96.6 410
17:37:45 -7 995 0 0 O 0 96.6 413
17:40:46 -7 995 0 1 NO 0 96.6 415
17:43:44 -7 995 0 1 O 0 96.6 415
17:46:46 -7 995 0 1 NO 0 96.6 406
17:49:45 -7 995 0 0 O 0 96.6 412
17:52:46 -7 995 0 0 O 0 96.6 406
17:55:45 -7 994 0 1 O 0 96.6 406
17:58:46 -7 995 0 1 O 0 96.6 406
18:01:45 -7 995 0 1 O 0 96.6 409
18:04:49 -7 995 0 1 NO 0 96.6 410
18:07:44 -7 995 0 0 O 0 96.6 406
18:10:49 -7 995 0 0 SO 0 96.6 409
18:13:46 -7 995 0 1 O 0 96.6 410
18:16:46 -7 995 0 0 SO 0 96.6 415
18:19:47 -7 995 0 0 O 0 96.6 413
18:22:47 -7 995 0 0 SO 0 96.6 405
18:25:49 -7 995 0 0 NO 0 96.6 407
18:28:47 -7 995 0 1 NO 0 96.6 406
18:31:47 -7 995 0 1 SO 0 96.6 406
18:34:46 -7 995 0 1 O 0 96.6 404
18:37:48 -8 995 0 1 SO 0 96.6 404
18:40:46 -8 995 0 0 O 0 96.6 403
18:43:48 -8 995 0 0 O 0 96.6 401
18:46:46 -8 995 0 1 N 0 96.6 407
18:49:45 -8 994 0 1 N 0 96.6 407
18:52:49 -7 995 0 1 SW 0 96.6 406
18:55:47 -7 995 0 2 NO 0 96.6 406
18:58:45 -7 995 0 0 O 0 96.6 407
19:01:46 -7 995 0 0 O 0 96.6 404
19:04:47 -7 995 0 0 SO 0 96.6 406
19:07:45 -7 995 0 0 S 0 96.6 407
19:10:47 -7 995 0 0 SO 0 96.6 404
19:13:48 -7 995 0 0 O 0 96.6 406
19:16:49 -7 995 0 0 NO 0 96.6 406
19:19:46 -7 994 0 1 O 0 96.6 406
19:22:44 -7 995 0 0 O 0 96.6 406
19:25:47 -7 995 0 2 NO 0 96.6 406
19:28:46 -7 995 0 0 NO 0 96.6 406
19:31:45 -7 995 0 0 NW 0 96.6 406
19:34:45 -7 994 0 0 S 0 96.6 403
19:37:48 -7 995 0 1 SO 0 96.6 406
19:40:46 -7 995 0 0 O 0 96.6 407
19:43:47 -7 994 0 0 SO 0 96.6 403
19:46:46 -7 995 0 0 N 0 96.6 406
19:49:46 -7 994 0 2 N 0 96.6 407
19:52:45 -7 994 0 1 S 0 96.6 407
19:55:48 -7 995 0 1 NO 0 96.6 406
19:58:46 -7 995 0 0 S 0 96.6 410
20:01:48 -7 995 0 0 NO 0 96.6 406
20:04:47 -7 994 0 0 O 0 96.6 415
20:07:47 -7 995 0 1 O 0 96.6 427
20:10:46 -7 995 0 1 O 0 96.6 448
20:13:46 -7 995 0 2 S 0 96.6 453
20:16:47 -7 994 0 2 O 0 96.6 451
20:19:46 -7 995 0 0 SO 0 96.6 456
20:22:44 -7 994 0 0 O 0 96.6 451
20:25:47 -7 994 0 0 O 0 96.6 454
20:28:46 -7 994 0 1 O 0 96.6 453
20:31:45 -7 994 0 1 O 0 96.6 471
20:34:48 -7 994 0 4 SO 0 96.6 468
20:37:48 -6 995 0 1 SO 0 96.6 474
20:40:47 -6 994 0 0 NW 0 96.6 471
20:43:49 -6 995 0 1 NO 0 96.6 483
20:46:46 -6 994 0 2 S 0 96.6 485
20:49:48 -6 995 0 1 NO 0 96.6 495
20:52:48 -6 995 0 2 NO 0 96.6 503
20:55:46 -6 994 0 0 S 0 96.6 513
20:58:46 -6 994 0 1 SW 0 96.6 516
21:01:48 -6 995 0 0 SO 0 96.6 515
21:04:47 -6 994 0 1 O 0 96.6 517
21:07:47 -6 995 0 1 NO 0 96.6 519
21:10:49 -5 995 0 1 NO 0 96.6 567
21:13:46 -5 994 0 0 0 96.6 565
21:16:46 -5 994 0 1 NW 0 96.6 564
21:19:46 -5 994 0 2 SO 0 96.6 558
21:22:48 -5 994 0 2 NW 0 96.6 567
21:25:47 -5 994 0 2 NO 0 96.6 573
21:28:47 -5 993 0 0 SO 0 96.6 582
21:31:45 -5 994 0 1 S 0 96.6 591
21:34:47 -5 994 0 2 O 0 96.6 600
21:37:47 -5 994 0 3 N 0 96.6 600
21:40:45 -5 993 0 1 S 0 96.6 597
21:43:46 -5 993 0 1 O 0 96.4 600
21:46:46 -5 993 0 1 SO 0 95.9 603
21:49:48 -5 993 0 3 NO 0 96.2 605
21:52:46 -5 993 0 1 NO 0 96.2 603
21:55:49 -5 994 0 1 W 0 96 606
21:58:45 -5 993 0 1 N 0 95.9 606
22:01:48 -5 993 0 0 SW 0 96.1 608
22:04:48 -5 993 0 3 SW 0 96.2 618
22:07:48 -5 993 0 1 SO 0 96.2 620
22:10:45 -5 993 0 3 O 0 96.1 623
22:13:47 -5 993 0 4 O 0 96 612
22:16:45 -5 992 0 4 O 0 96 617
22:19:47 -5 993 0 1 SO 0 96.2 611
22:22:46 -5 993 0 2 O 0 96.1 612
22:25:47 -5 994 0 3 SW 0 96.3 621
22:28:50 -5 992 0 0 SO 0 96.2 633
22:31:45 -5 993 0 0 O 0 96.1 641
22:34:49 -5 993 0 2 SO 0 95.8 638
22:37:46 -5 993 0 0 NO 0 95.3 635
22:40:48 -5 992 0 0 SW 0 95.2 633
22:43:46 -5 993 0 2 NO 0 95.3 644
22:46:45 -5 993 0 1 O 0 96 650
22:49:49 -5 993 0 1 SO 0 96.1 653
22:52:46 -5 992 0 0 SO 0 96 641
22:55:47 -5 992 0 4 S 0 96.1 646
22:58:50 -5 992 0 0 NO 0 96.2 644
23:01:44 -5 993 0 2 0 96.4 647
23:04:48 -5 992 0 3 O 0 96.5 648
23:07:48 -5 992 0 0 NO 0 96.4 651
23:10:47 -5 992 0 1 SO 0 96.3 642
23:13:46 -5 992 0 0 O 0 96 627
23:16:45 -5 993 0 1 O 0 96 623
23:19:45 -5 993 0 0 O 0 96.4 621
23:22:47 -5 993 0 0 SO 0 96.1 629
23:25:49 -5 993 0 0 NO 0 96.2 639
23:28:48 -5 993 0 0 SO 0 96.4 633
23:31:47 -5 992 0 0 O 0 96 634
23:34:47 -5 992 0 1 SW 0 96 630
23:37:46 -5 993 0 2 O 0 96 630
23:40:45 -5 992 0 1 S 0 96.2 633
23:43:49 -5 992 0 0 SO 0 96 628
23:46:48 -5 992 0 1 S 0 96.1 639
23:49:46 -5 992 0 0 O 0 96.2 638
23:52:45 -5 992 0 1 O 0 96.3 630
23:55:48 -5 992 0 0 N 0 96.3 629
23:58:47 -5 992 0 2 SO 0 96.3 629

Letzte Änderung : 22-Jul-2022
Copyright Jens Köhler, Wolfsburg, Obere Dorfstraße 10d